| time (UTC) | temp F | wind direction | speed MPH | gust MPH | rain 1hr in | rain 24hr in | rain mn in | humidity % | barometer mb |
| 20260901225004 | 100 | 100 | 5.0 | 11.0 | 0.00 | 0.00 | 0.00 | 39 | 1013.1 |
| 20260901224504 | 101 | 105 | 6.0 | 12.0 | 0.00 | 0.00 | 0.00 | 39 | 1013.0 |
| 20260901224004 | 101 | 101 | 6.0 | 16.0 | 0.00 | 0.00 | 0.00 | 38 | 1013.0 |
| 20260901223504 | 102 | 101 | 7.0 | 17.0 | 0.00 | 0.00 | 0.00 | 38 | 1013.0 |
| 20260901223004 | 102 | 104 | 7.0 | 17.0 | 0.00 | 0.00 | 0.00 | 37 | 1013.0 |
| 20260901222504 | 102 | 92 | 5.0 | 11.0 | 0.00 | 0.00 | 0.00 | 38 | 1013.0 |
| 20260901222004 | 101 | 77 | 4.0 | 10.0 | 0.00 | 0.00 | 0.00 | 38 | 1013.0 |
| 20260901221504 | 101 | 97 | 2.0 | 7.0 | 0.00 | 0.00 | 0.00 | 38 | 1013.1 |
| 20260901221025 | 101 | 114 | 1.0 | 6.0 | 0.00 | 0.00 | 0.00 | 37 | 1013.0 |
| 20260901220525 | 102 | 113 | 2.0 | 8.0 | 0.00 | 0.00 | 0.00 | 37 | 1013.1 |
| 20260901220025 | 102 | 116 | 5.0 | 11.0 | 0.00 | 0.00 | 0.00 | 36 | 1013.1 |
| 20260901215504 | 103 | 108 | 5.0 | 11.0 | 0.00 | 0.00 | 0.00 | 36 | 1013.2 |
| 20260901215004 | 103 | 89 | 4.0 | 11.0 | 0.00 | 0.00 | 0.00 | 36 | 1013.2 |
| 20260901214504 | 103 | 35 | 2.0 | 11.0 | 0.00 | 0.00 | 0.00 | 36 | 1013.1 |
| 20260901214004 | 103 | 358 | 4.0 | 7.0 | 0.00 | 0.00 | 0.00 | 38 | 1013.1 |
| 20260901213504 | 102 | 356 | 4.0 | 6.0 | 0.00 | 0.00 | 0.00 | 38 | 1013.1 |
| 20260901213004 | 102 | 46 | 4.0 | 10.0 | 0.00 | 0.00 | 0.00 | 37 | 1013.2 |
| 20260901212504 | 101 | 121 | 2.0 | 10.0 | 0.00 | 0.00 | 0.00 | 37 | 1013.3 |
| 20260901212004 | 101 | 126 | 2.0 | 10.0 | 0.00 | 0.00 | 0.00 | 38 | 1013.3 |
| 20260901211503 | 101 | 104 | 5.0 | 10.0 | 0.00 | 0.00 | 0.00 | 38 | 1013.4 |
| 20260901211004 | 101 | 106 | 5.0 | 11.0 | 0.00 | 0.00 | 0.00 | 38 | 1013.5 |
| 20260901210504 | 101 | 86 | 4.0 | 11.0 | 0.00 | 0.00 | 0.00 | 38 | 1013.5 |
| 20260901210004 | 102 | 79 | 6.0 | 14.0 | 0.00 | 0.00 | 0.00 | 39 | 1013.6 |
| 20260901205504 | 102 | 86 | 5.0 | 14.0 | 0.00 | 0.00 | 0.00 | 39 | 1013.8 |
| 20260901205004 | 102 | 58 | 4.0 | 10.0 | 0.00 | 0.00 | 0.00 | 39 | 1013.7 |
| 20260901204504 | 101 | 51 | 4.0 | 8.0 | 0.00 | 0.00 | 0.00 | 40 | 1013.7 |
| 20260901204003 | 100 | 102 | 5.0 | 12.0 | 0.00 | 0.00 | 0.00 | 42 | 1013.9 |
| 20260901203504 | 99 | 120 | 4.0 | 12.0 | 0.00 | 0.00 | 0.00 | 42 | 1014.0 |
| 20260901203004 | 98 | 87 | 4.0 | 10.0 | 0.00 | 0.00 | 0.00 | 42 | 1014.1 |
| 20260901202504 | 98 | 105 | 5.0 | 11.0 | 0.00 | 0.00 | 0.00 | 41 | 1014.1 |
| 20260901202004 | 99 | 117 | 4.0 | 11.0 | 0.00 | 0.00 | 0.00 | 41 | 1014.2 |
| 20260901201504 | 98 | 143 | 4.0 | 10.0 | 0.00 | 0.00 | 0.00 | 44 | 1014.3 |
| 20260901201004 | 98 | 143 | 4.0 | 10.0 | 0.00 | 0.00 | 0.00 | 44 | 1014.4 |
| 20260901200503 | 98 | 134 | 4.0 | 10.0 | 0.00 | 0.00 | 0.00 | 44 | 1014.4 |
| 20260901200004 | 98 | 125 | 5.0 | 10.0 | 0.00 | 0.00 | 0.00 | 43 | 1014.5 |
| 20260901195504 | 98 | 114 | 4.0 | 10.0 | 0.00 | 0.00 | 0.00 | 43 | 1014.6 |
| 20260901195004 | 99 | 152 | 2.0 | 8.0 | 0.00 | 0.00 | 0.00 | 44 | 1014.7 |
| 20260901194503 | 99 | 152 | 2.0 | 8.0 | 0.00 | 0.00 | 0.00 | 43 | 1014.8 |
| 20260901194004 | 99 | 149 | 2.0 | 5.0 | 0.00 | 0.00 | 0.00 | 42 | 1014.8 |
| 20260901193504 | 99 | 173 | 2.0 | 6.0 | 0.00 | 0.00 | 0.00 | 42 | 1014.8 |
| 20260901193004 | 99 | 113 | 2.0 | 7.0 | 0.00 | 0.00 | 0.00 | 42 | 1014.9 |
| 20260901192504 | 99 | 57 | 4.0 | 7.0 | 0.00 | 0.00 | 0.00 | 44 | 1015.0 |
| 20260901192004 | 98 | 148 | 2.0 | 7.0 | 0.00 | 0.00 | 0.00 | 45 | 1015.0 |
| 20260901191504 | 98 | 170 | 2.0 | 7.0 | 0.00 | 0.00 | 0.00 | 44 | 1015.0 |
| 20260901191003 | 98 | 132 | 4.0 | 7.0 | 0.00 | 0.00 | 0.00 | 44 | 1015.2 |
| 20260901190504 | 98 | 99 | 2.0 | 7.0 | 0.00 | 0.00 | 0.00 | 43 | 1015.2 |
| 20260901190004 | 99 | 126 | 2.0 | 7.0 | 0.00 | 0.00 | 0.00 | 44 | 1015.3 |
| 20260901185504 | 99 | 105 | 2.0 | 8.0 | 0.00 | 0.00 | 0.00 | 42 | 1015.5 |
| 20260901185004 | 100 | 104 | 2.0 | 12.0 | 0.00 | 0.00 | 0.00 | 43 | 1015.4 |
| 20260901184504 | 101 | 97 | 4.0 | 12.0 | 0.00 | 0.00 | 0.00 | 41 | 1015.5 |
| 20260901184003 | 101 | 124 | 5.0 | 12.0 | 0.00 | 0.00 | 0.00 | 42 | 1015.6 |
| 20260901183504 | 102 | 152 | 5.0 | 11.0 | 0.00 | 0.00 | 0.00 | 42 | 1015.8 |
| 20260901183024 | 101 | 126 | 6.0 | 13.0 | 0.00 | 0.00 | 0.00 | 42 | 1015.8 |
| 20260901182524 | 100 | 126 | 5.0 | 13.0 | 0.00 | 0.00 | 0.00 | 44 | 1016.0 |
| 20260901182004 | 100 | 137 | 5.0 | 12.0 | 0.00 | 0.00 | 0.00 | 44 | 1015.9 |
| 20260901181504 | 99 | 145 | 6.0 | 12.0 | 0.00 | 0.00 | 0.00 | 45 | 1016.0 |
| 20260901181003 | 98 | 145 | 5.0 | 13.0 | 0.00 | 0.00 | 0.00 | 45 | 1016.1 |
| 20260901180503 | 97 | 109 | 2.0 | 13.0 | 0.00 | 0.00 | 0.00 | 47 | 1016.2 |
| 20260901180004 | 97 | 45 | 2.0 | 7.0 | 0.00 | 0.00 | 0.00 | 47 | 1016.4 |
| 20260901175503 | 97 | 59 | 4.0 | 7.0 | 0.00 | 0.00 | 0.00 | 48 | 1016.5 |
| 20260901175003 | 97 | 86 | 5.0 | 16.0 | 0.00 | 0.00 | 0.00 | 48 | 1016.6 |
| 20260901174503 | 97 | 101 | 5.0 | 16.0 | 0.00 | 0.00 | 0.00 | 49 | 1016.7 |
| 20260901174003 | 96 | 99 | 4.0 | 17.0 | 0.00 | 0.00 | 0.00 | 50 | 1016.7 |
| 20260901173503 | 96 | 119 | 4.0 | 17.0 | 0.00 | 0.00 | 0.00 | 50 | 1016.8 |
| 20260901173003 | 96 | 159 | 4.0 | 10.0 | 0.00 | 0.00 | 0.00 | 51 | 1016.8 |
| 20260901172524 | 96 | 149 | 5.0 | 11.0 | 0.00 | 0.00 | 0.00 | 51 | 1016.8 |
| 20260901172003 | 95 | 139 | 5.0 | 12.0 | 0.00 | 0.00 | 0.00 | 51 | 1017.0 |
| 20260901171504 | 95 | 127 | 4.0 | 10.0 | 0.00 | 0.00 | 0.00 | 51 | 1017.0 |
| 20260901171003 | 94 | 30 | 4.0 | 11.0 | 0.00 | 0.00 | 0.00 | 53 | 1017.0 |
| 20260901170503 | 94 | 58 | 4.0 | 11.0 | 0.00 | 0.00 | 0.00 | 54 | 1017.0 |
| 20260901170004 | 94 | 85 | 4.0 | 10.0 | 0.00 | 0.00 | 0.00 | 53 | 1017.1 |
| 20260901165503 | 93 | 110 | 5.0 | 13.0 | 0.00 | 0.00 | 0.00 | 54 | 1017.2 |
| 20260901165004 | 93 | 140 | 5.0 | 13.0 | 0.00 | 0.00 | 0.00 | 54 | 1017.2 |
| 20260901164504 | 92 | 124 | 2.0 | 11.0 | 0.00 | 0.00 | 0.00 | 55 | 1017.2 |
| 20260901164004 | 92 | 112 | 2.0 | 8.0 | 0.00 | 0.00 | 0.00 | 56 | 1017.1 |
| 20260901163503 | 92 | 136 | 5.0 | 13.0 | 0.00 | 0.00 | 0.00 | 56 | 1017.2 |
| 20260901163003 | 91 | 136 | 6.0 | 13.0 | 0.00 | 0.00 | 0.00 | 57 | 1017.4 |
| 20260901162504 | 91 | 142 | 5.0 | 10.0 | 0.00 | 0.00 | 0.00 | 58 | 1017.4 |
| 20260901162003 | 90 | 150 | 4.0 | 8.0 | 0.00 | 0.00 | 0.00 | 58 | 1017.4 |
| 20260901161503 | 90 | 169 | 2.0 | 6.0 | 0.00 | 0.00 | 0.00 | 61 | 1017.6 |
| 20260901161003 | 90 | 115 | 4.0 | 6.0 | 0.00 | 0.00 | 0.00 | 61 | 1017.6 |
| 20260901160503 | 89 | 87 | 4.0 | 7.0 | 0.00 | 0.00 | 0.00 | 62 | 1017.6 |
| 20260901160003 | 89 | 108 | 2.0 | 7.0 | 0.00 | 0.00 | 0.00 | 61 | 1017.6 |
| 20260901155503 | 88 | 99 | 2.0 | 6.0 | 0.00 | 0.00 | 0.00 | 62 | 1017.6 |
| 20260901155025 | 88 | 14 | 2.0 | 6.0 | 0.00 | 0.00 | 0.00 | 64 | 1017.6 |
| 20260901154504 | 88 | 278 | 2.0 | 5.0 | 0.00 | 0.00 | 0.00 | 67 | 1017.5 |
| 20260901154003 | 87 | 274 | 2.0 | 5.0 | 0.00 | 0.00 | 0.00 | 68 | 1017.5 |
| 20260901153503 | 87 | 292 | 2.0 | 7.0 | 0.00 | 0.00 | 0.00 | 71 | 1017.5 |
| 20260901153003 | 86 | 274 | 2.0 | 7.0 | 0.00 | 0.00 | 0.00 | 71 | 1017.4 |
| 20260901152524 | 86 | 219 | 2.0 | 7.0 | 0.00 | 0.00 | 0.00 | 72 | 1017.4 |
| 20260901152003 | 86 | 217 | 1.0 | 5.0 | 0.00 | 0.00 | 0.00 | 73 | 1017.4 |
| 20260901151503 | 85 | 250 | 1.0 | 4.0 | 0.00 | 0.00 | 0.00 | 73 | 1017.4 |
| 20260901151024 | 85 | 257 | 2.0 | 5.0 | 0.00 | 0.00 | 0.00 | 74 | 1017.4 |
| 20260901150503 | 84 | 242 | 2.0 | 6.0 | 0.00 | 0.00 | 0.00 | 76 | 1017.5 |
| 20260901150003 | 84 | 242 | 2.0 | 5.0 | 0.00 | 0.00 | 0.00 | 76 | 1017.5 |
| 20260901145503 | 84 | 286 | 2.0 | 5.0 | 0.00 | 0.00 | 0.00 | 77 | 1017.6 |
| 20260901145003 | 83 | 293 | 2.0 | 5.0 | 0.00 | 0.00 | 0.00 | 78 | 1017.6 |
| 20260901144503 | 83 | 249 | 2.0 | 5.0 | 0.00 | 0.00 | 0.00 | 80 | 1017.6 |
| 20260901144003 | 82 | 208 | 2.0 | 5.0 | 0.00 | 0.00 | 0.00 | 82 | 1017.7 |
| 20260901143503 | 82 | 183 | 2.0 | 5.0 | 0.00 | 0.00 | 0.00 | 83 | 1017.6 |
| 20260901143003 | 81 | 190 | 2.0 | 5.0 | 0.00 | 0.00 | 0.00 | 85 | 1017.7 |
| 20260901142503 | 80 | 234 | 2.0 | 5.0 | 0.00 | 0.00 | 0.00 | 87 | 1017.7 |
| 20260901142003 | 80 | 258 | 4.0 | 8.0 | 0.00 | 0.00 | 0.00 | 89 | 1017.8 |
| 20260901141524 | 79 | 268 | 4.0 | 8.0 | 0.00 | 0.00 | 0.00 | 90 | 1017.9 |
| 20260901141003 | 79 | 266 | 2.0 | 8.0 | 0.00 | 0.00 | 0.00 | 91 | 1017.8 |
| 20260901140524 | 78 | 260 | 2.0 | 7.0 | 0.00 | 0.00 | 0.00 | 92 | 1017.9 |
| 20260901140003 | 78 | 251 | 2.0 | 5.0 | 0.00 | 0.00 | 0.00 | 92 | 1017.9 |
| 20260901135503 | 78 | 236 | 2.0 | 5.0 | 0.00 | 0.00 | 0.00 | 92 | 1017.9 |
| 20260901135003 | 77 | 215 | 1.0 | 4.0 | 0.00 | 0.00 | 0.00 | 92 | 1017.8 |
| 20260901134503 | 77 | 176 | 1.0 | 2.0 | 0.00 | 0.00 | 0.00 | 92 | 1017.6 |
| 20260901134003 | 76 | 176 | 0.0 | 1.0 | 0.00 | 0.00 | 0.00 | 92 | 1017.5 |
| 20260901133503 | 76 | 176 | 0.0 | 2.0 | 0.00 | 0.00 | 0.00 | 92 | 1017.5 |
| 20260901133003 | 75 | 176 | 1.0 | 2.0 | 0.00 | 0.00 | 0.00 | 91 | 1017.5 |
| 20260901132503 | 75 | 176 | 0.0 | 2.0 | 0.00 | 0.00 | 0.00 | 91 | 1017.5 |
| 20260901132003 | 74 | 176 | 0.0 | 1.0 | 0.00 | 0.00 | 0.00 | 90 | 1017.4 |
| 20260901131503 | 74 | 0 | 0.0 | 0.0 | 0.00 | 0.00 | 0.00 | 89 | 1017.4 |
| 20260901131003 | 74 | 0 | 0.0 | 0.0 | 0.00 | 0.00 | 0.00 | 89 | 1017.4 |
| 20260901130503 | 74 | 0 | 0.0 | 0.0 | 0.00 | 0.00 | 0.00 | 88 | 1017.3 |
| 20260901130004 | 74 | 0 | 0.0 | 0.0 | 0.00 | 0.00 | 0.00 | 88 | 1017.3 |
| 20260901125503 | 74 | 0 | 0.0 | 0.0 | 0.00 | 0.00 | 0.00 | 88 | 1017.2 |
| 20260901125024 | 74 | 0 | 0.0 | 0.0 | 0.00 | 0.00 | 0.00 | 87 | 1017.2 |
| 20260901124504 | 73 | 0 | 0.0 | 0.0 | 0.00 | 0.00 | 0.00 | 87 | 1017.2 |
| 20260901124024 | 73 | 176 | 0.0 | 1.0 | 0.00 | 0.00 | 0.00 | 87 | 1017.2 |
| 20260901123503 | 74 | 176 | 0.0 | 1.0 | 0.00 | 0.00 | 0.00 | 86 | 1017.1 |
| 20260901123003 | 74 | 176 | 0.0 | 1.0 | 0.00 | 0.00 | 0.00 | 87 | 1017.1 |
| 20260901122524 | 74 | 176 | 0.0 | 1.0 | 0.00 | 0.00 | 0.00 | 86 | 1017.1 |
| 20260901122003 | 74 | 0 | 0.0 | 0.0 | 0.00 | 0.00 | 0.00 | 86 | 1017.0 |
| 20260901121504 | 74 | 0 | 0.0 | 0.0 | 0.00 | 0.00 | 0.00 | 86 | 1016.9 |
| 20260901121004 | 74 | 0 | 0.0 | 0.0 | 0.00 | 0.00 | 0.00 | 86 | 1017.0 |
| 20260901120504 | 74 | 176 | 0.0 | 1.0 | 0.00 | 0.00 | 0.00 | 86 | 1016.9 |
| 20260901120004 | 74 | 176 | 0.0 | 1.0 | 0.00 | 0.00 | 0.00 | 86 | 1016.9 |
| 20260901115504 | 74 | 176 | 0.0 | 1.0 | 0.00 | 0.00 | 0.00 | 86 | 1017.0 |
| 20260901115004 | 74 | 176 | 0.0 | 1.0 | 0.00 | 0.00 | 0.00 | 86 | 1017.0 |
| 20260901114504 | 75 | 176 | 0.0 | 1.0 | 0.00 | 0.00 | 0.00 | 85 | 1016.9 |
| 20260901114004 | 75 | 176 | 0.0 | 1.0 | 0.00 | 0.00 | 0.00 | 86 | 1016.8 |
| 20260901113525 | 75 | 176 | 0.0 | 1.0 | 0.00 | 0.00 | 0.00 | 86 | 1016.8 |
| 20260901113025 | 75 | 176 | 0.0 | 1.0 | 0.00 | 0.00 | 0.00 | 86 | 1016.7 |
| 20260901112504 | 75 | 0 | 0.0 | 0.0 | 0.00 | 0.00 | 0.00 | 85 | 1016.7 |
| 20260901112025 | 75 | 0 | 0.0 | 0.0 | 0.00 | 0.00 | 0.00 | 85 | 1016.6 |
| 20260901111504 | 75 | 176 | 0.0 | 1.0 | 0.00 | 0.00 | 0.00 | 85 | 1016.6 |
| 20260901111004 | 75 | 176 | 0.0 | 1.0 | 0.00 | 0.00 | 0.00 | 85 | 1016.6 |
| 20260901110504 | 75 | 176 | 0.0 | 2.0 | 0.00 | 0.00 | 0.00 | 85 | 1016.6 |
| 20260901110004 | 75 | 176 | 1.0 | 2.0 | 0.00 | 0.00 | 0.00 | 85 | 1016.5 |
| 20260901105504 | 75 | 176 | 1.0 | 1.0 | 0.00 | 0.00 | 0.00 | 85 | 1016.5 |
| 20260901105004 | 75 | 176 | 0.0 | 2.0 | 0.00 | 0.00 | 0.00 | 84 | 1016.4 |
| 20260901104504 | 76 | 176 | 0.0 | 2.0 | 0.00 | 0.00 | 0.00 | 84 | 1016.5 |
| 20260901104025 | 76 | 176 | 0.0 | 2.0 | 0.00 | 0.00 | 0.00 | 84 | 1016.5 |
| 20260901103504 | 76 | 176 | 0.0 | 1.0 | 0.00 | 0.00 | 0.00 | 84 | 1016.5 |
| 20260901103004 | 76 | 176 | 0.0 | 2.0 | 0.00 | 0.00 | 0.00 | 83 | 1016.5 |
| 20260901102504 | 76 | 176 | 0.0 | 2.0 | 0.00 | 0.00 | 0.00 | 83 | 1016.5 |
| 20260901102004 | 76 | 176 | 0.0 | 1.0 | 0.00 | 0.00 | 0.00 | 83 | 1016.5 |
| 20260901101504 | 76 | 176 | 0.0 | 1.0 | 0.00 | 0.00 | 0.00 | 83 | 1016.5 |
| 20260901101004 | 76 | 176 | 0.0 | 2.0 | 0.00 | 0.00 | 0.00 | 83 | 1016.6 |
| 20260901100504 | 76 | 176 | 0.0 | 2.0 | 0.00 | 0.00 | 0.00 | 83 | 1016.5 |
| 20260901100004 | 76 | 176 | 0.0 | 2.0 | 0.00 | 0.00 | 0.00 | 83 | 1016.5 |
| 20260901095525 | 77 | 176 | 1.0 | 2.0 | 0.00 | 0.00 | 0.00 | 83 | 1016.6 |
| 20260901095004 | 77 | 176 | 0.0 | 1.0 | 0.00 | 0.00 | 0.00 | 82 | 1016.7 |
| 20260901094504 | 77 | 176 | 0.0 | 2.0 | 0.00 | 0.00 | 0.00 | 82 | 1016.7 |
| 20260901094004 | 77 | 176 | 1.0 | 2.0 | 0.00 | 0.00 | 0.00 | 82 | 1016.8 |
| 20260901093504 | 77 | 176 | 0.0 | 1.0 | 0.00 | 0.00 | 0.00 | 82 | 1016.9 |
| 20260901093004 | 77 | 176 | 0.0 | 1.0 | 0.00 | 0.00 | 0.00 | 82 | 1017.0 |
| 20260901092504 | 78 | 176 | 1.0 | 2.0 | 0.00 | 0.00 | 0.00 | 82 | 1017.0 |
| 20260901092025 | 78 | 176 | 1.0 | 4.0 | 0.00 | 0.00 | 0.00 | 82 | 1017.0 |
| 20260901091504 | 78 | 176 | 2.0 | 4.0 | 0.00 | 0.00 | 0.00 | 82 | 1016.9 |
| 20260901091003 | 78 | 176 | 1.0 | 2.0 | 0.00 | 0.00 | 0.00 | 82 | 1016.9 |
| 20260901090504 | 78 | 176 | 1.0 | 2.0 | 0.00 | 0.00 | 0.00 | 81 | 1016.9 |
| 20260901090004 | 78 | 176 | 1.0 | 4.0 | 0.00 | 0.00 | 0.00 | 81 | 1016.8 |
| 20260901085504 | 78 | 176 | 1.0 | 4.0 | 0.00 | 0.00 | 0.00 | 80 | 1016.7 |
| 20260901085004 | 78 | 176 | 1.0 | 4.0 | 0.00 | 0.00 | 0.00 | 80 | 1016.7 |
| 20260901084504 | 78 | 176 | 1.0 | 4.0 | 0.00 | 0.00 | 0.00 | 80 | 1016.7 |
| 20260901084004 | 79 | 176 | 1.0 | 2.0 | 0.00 | 0.00 | 0.00 | 79 | 1016.7 |
| 20260901083504 | 79 | 176 | 1.0 | 2.0 | 0.00 | 0.00 | 0.00 | 79 | 1016.7 |
| 20260901083025 | 79 | 176 | 1.0 | 2.0 | 0.00 | 0.00 | 0.00 | 79 | 1016.7 |
| 20260901082504 | 79 | 176 | 1.0 | 2.0 | 0.00 | 0.00 | 0.00 | 79 | 1016.7 |
| 20260901082003 | 79 | 176 | 1.0 | 4.0 | 0.00 | 0.00 | 0.00 | 79 | 1016.8 |
| 20260901081504 | 79 | 176 | 1.0 | 4.0 | 0.00 | 0.00 | 0.00 | 78 | 1016.8 |
| 20260901081004 | 80 | 176 | 2.0 | 4.0 | 0.00 | 0.00 | 0.00 | 78 | 1016.8 |
| 20260901080504 | 80 | 176 | 2.0 | 4.0 | 0.00 | 0.00 | 0.00 | 77 | 1016.9 |
| 20260901080004 | 80 | 176 | 2.0 | 4.0 | 0.00 | 0.00 | 0.00 | 76 | 1017.0 |
| 20260901075504 | 80 | 176 | 1.0 | 2.0 | 0.00 | 0.00 | 0.00 | 76 | 1017.0 |
| 20260901075004 | 80 | 176 | 1.0 | 2.0 | 0.00 | 0.00 | 0.00 | 76 | 1016.9 |
| 20260901074504 | 80 | 176 | 1.0 | 4.0 | 0.00 | 0.00 | 0.00 | 76 | 1017.0 |
| 20260901074024 | 80 | 176 | 1.0 | 4.0 | 0.00 | 0.00 | 0.00 | 76 | 1017.0 |
| 20260901073504 | 80 | 176 | 1.0 | 2.0 | 0.00 | 0.00 | 0.00 | 75 | 1016.9 |
| 20260901073003 | 81 | 176 | 1.0 | 4.0 | 0.00 | 0.00 | 0.00 | 75 | 1016.9 |
| 20260901072504 | 81 | 175 | 2.0 | 6.0 | 0.00 | 0.00 | 0.00 | 75 | 1016.8 |
| 20260901072025 | 81 | 173 | 2.0 | 6.0 | 0.00 | 0.00 | 0.00 | 75 | 1016.7 |
| 20260901071524 | 81 | 171 | 2.0 | 5.0 | 0.00 | 0.00 | 0.00 | 73 | 1016.7 |
| 20260901071025 | 81 | 171 | 1.0 | 5.0 | 0.00 | 0.00 | 0.00 | 73 | 1016.8 |
| 20260901070504 | 81 | 171 | 2.0 | 5.0 | 0.00 | 0.00 | 0.00 | 73 | 1016.8 |
| 20260901070004 | 82 | 171 | 2.0 | 5.0 | 0.00 | 0.00 | 0.00 | 73 | 1016.7 |
| 20260901065504 | 82 | 172 | 2.0 | 4.0 | 0.00 | 0.00 | 0.00 | 72 | 1016.6 |
| 20260901065003 | 82 | 173 | 2.0 | 4.0 | 0.00 | 0.00 | 0.00 | 72 | 1016.6 |
| 20260901064525 | 82 | 173 | 2.0 | 5.0 | 0.00 | 0.00 | 0.00 | 72 | 1016.5 |
| 20260901064003 | 82 | 155 | 2.0 | 5.0 | 0.00 | 0.00 | 0.00 | 71 | 1016.5 |
| 20260901063504 | 82 | 136 | 2.0 | 6.0 | 0.00 | 0.00 | 0.00 | 71 | 1016.6 |
| 20260901063004 | 83 | 130 | 4.0 | 6.0 | 0.00 | 0.00 | 0.00 | 71 | 1016.6 |
| 20260901062504 | 83 | 140 | 2.0 | 6.0 | 0.00 | 0.00 | 0.00 | 70 | 1016.5 |
| 20260901062003 | 83 | 159 | 2.0 | 6.0 | 0.00 | 0.00 | 0.00 | 70 | 1016.5 |
| 20260901061525 | 83 | 147 | 4.0 | 8.0 | 0.00 | 0.00 | 0.00 | 70 | 1016.4 |
| 20260901061004 | 83 | 147 | 4.0 | 8.0 | 0.00 | 0.00 | 0.00 | 70 | 1016.3 |
| 20260901060504 | 83 | 165 | 5.0 | 7.0 | 0.00 | 0.00 | 0.00 | 70 | 1016.4 |
| 20260901060003 | 83 | 167 | 5.0 | 8.0 | 0.00 | 0.00 | 0.00 | 69 | 1016.2 |
| 20260901055503 | 84 | 166 | 4.0 | 8.0 | 0.00 | 0.00 | 0.00 | 69 | 1016.2 |
| 20260901055004 | 84 | 163 | 4.0 | 8.0 | 0.00 | 0.00 | 0.00 | 68 | 1016.3 |
| 20260901054524 | 84 | 166 | 4.0 | 8.0 | 0.00 | 0.00 | 0.00 | 68 | 1016.3 |
| 20260901054004 | 84 | 166 | 5.0 | 8.0 | 0.00 | 0.00 | 0.00 | 68 | 1016.2 |
| 20260901053504 | 84 | 157 | 4.0 | 8.0 | 0.00 | 0.00 | 0.00 | 68 | 1016.3 |
| 20260901053003 | 84 | 152 | 5.0 | 8.0 | 0.00 | 0.00 | 0.00 | 68 | 1016.2 |
| 20260901052524 | 84 | 156 | 5.0 | 8.0 | 0.00 | 0.00 | 0.00 | 67 | 1016.2 |
| 20260901052025 | 84 | 159 | 5.0 | 10.0 | 0.00 | 0.00 | 0.00 | 67 | 1016.2 |
| 20260901051504 | 85 | 155 | 6.0 | 13.0 | 0.00 | 0.00 | 0.00 | 67 | 1016.1 |
| 20260901051025 | 85 | 159 | 6.0 | 13.0 | 0.00 | 0.00 | 0.00 | 67 | 1016.1 |
| 20260901050525 | 85 | 162 | 5.0 | 13.0 | 0.00 | 0.00 | 0.00 | 67 | 1016.2 |
| 20260901050004 | 85 | 163 | 4.0 | 8.0 | 0.00 | 0.00 | 0.00 | 68 | 1016.2 |
| 20260901045504 | 85 | 153 | 5.0 | 12.0 | 0.00 | 0.00 | 0.00 | 67 | 1016.1 |
| 20260901045003 | 86 | 149 | 5.0 | 12.0 | 0.00 | 0.00 | 0.00 | 67 | 1016.0 |
| 20260901044505 | 86 | 147 | 4.0 | 8.0 | 0.00 | 0.00 | 0.00 | 67 | 1016.1 |
| 20260901044004 | 86 | 145 | 5.0 | 11.0 | 0.00 | 0.00 | 0.00 | 67 | 1016.0 |
| 20260901043504 | 86 | 148 | 5.0 | 11.0 | 0.00 | 0.00 | 0.00 | 67 | 1016.0 |
| 20260901043004 | 86 | 154 | 5.0 | 10.0 | 0.00 | 0.00 | 0.00 | 66 | 1016.0 |
| 20260901042503 | 86 | 155 | 5.0 | 10.0 | 0.00 | 0.00 | 0.00 | 66 | 1015.9 |
| 20260901042003 | 86 | 144 | 5.0 | 10.0 | 0.00 | 0.00 | 0.00 | 66 | 1016.0 |
| 20260901041503 | 86 | 142 | 6.0 | 11.0 | 0.00 | 0.00 | 0.00 | 65 | 1015.9 |
| 20260901041004 | 86 | 138 | 5.0 | 11.0 | 0.00 | 0.00 | 0.00 | 65 | 1016.0 |
| 20260901040504 | 87 | 134 | 5.0 | 13.0 | 0.00 | 0.00 | 0.00 | 65 | 1016.0 |
| 20260901040003 | 87 | 135 | 6.0 | 13.0 | 0.00 | 0.00 | 0.00 | 64 | 1015.9 |
| 20260901035503 | 87 | 138 | 6.0 | 13.0 | 0.00 | 0.00 | 0.00 | 64 | 1015.9 |
| 20260901035004 | 87 | 137 | 6.0 | 13.0 | 0.00 | 0.00 | 0.00 | 64 | 1015.8 |
| 20260901034503 | 87 | 134 | 6.0 | 17.0 | 0.00 | 0.00 | 0.00 | 64 | 1015.8 |
| 20260901034024 | 87 | 137 | 6.0 | 17.0 | 0.00 | 0.00 | 0.00 | 64 | 1015.8 |
| 20260901033503 | 87 | 134 | 6.0 | 14.0 | 0.00 | 0.00 | 0.00 | 63 | 1015.8 |
| 20260901033024 | 87 | 131 | 6.0 | 14.0 | 0.00 | 0.00 | 0.00 | 63 | 1015.8 |
| 20260901032524 | 87 | 131 | 6.0 | 12.0 | 0.00 | 0.00 | 0.00 | 62 | 1015.8 |
| 20260901032003 | 87 | 125 | 5.0 | 12.0 | 0.00 | 0.00 | 0.00 | 61 | 1015.7 |
| 20260901031504 | 87 | 121 | 6.0 | 11.0 | 0.00 | 0.00 | 0.00 | 61 | 1015.6 |
| 20260901031003 | 87 | 118 | 6.0 | 11.0 | 0.00 | 0.00 | 0.00 | 60 | 1015.5 |
| 20260901030503 | 87 | 123 | 6.0 | 12.0 | 0.00 | 0.00 | 0.00 | 59 | 1015.4 |
| 20260901030003 | 87 | 122 | 6.0 | 14.0 | 0.00 | 0.00 | 0.00 | 58 | 1015.4 |
| 20260901025503 | 87 | 119 | 6.0 | 14.0 | 0.00 | 0.00 | 0.00 | 56 | 1015.3 |
| 20260901025003 | 87 | 115 | 5.0 | 12.0 | 0.00 | 0.00 | 0.00 | 54 | 1015.2 |
| 20260901024503 | 87 | 112 | 5.0 | 11.0 | 0.00 | 0.00 | 0.00 | 53 | 1015.0 |
| 20260901024003 | 87 | 120 | 6.0 | 11.0 | 0.00 | 0.00 | 0.00 | 52 | 1015.0 |
| 20260901023503 | 87 | 121 | 5.0 | 19.0 | 0.00 | 0.00 | 0.00 | 51 | 1014.9 |
| 20260901023003 | 88 | 116 | 1.0 | 19.0 | 0.00 | 0.00 | 0.00 | 50 | 1014.8 |
| 20260901022503 | 88 | 117 | 0.0 | 2.0 | 0.00 | 0.00 | 0.00 | 50 | 1014.6 |
| 20260901022024 | 88 | 117 | 0.0 | 2.0 | 0.00 | 0.00 | 0.00 | 50 | 1014.5 |
| 20260901021503 | 89 | 117 | 1.0 | 2.0 | 0.00 | 0.00 | 0.00 | 49 | 1014.4 |
| 20260901021003 | 89 | 113 | 2.0 | 6.0 | 0.00 | 0.00 | 0.00 | 48 | 1014.4 |
| 20260901020503 | 89 | 105 | 2.0 | 7.0 | 0.00 | 0.00 | 0.00 | 48 | 1014.4 |
| 20260901020003 | 89 | 108 | 2.0 | 7.0 | 0.00 | 0.00 | 0.00 | 47 | 1014.3 |
| 20260901015503 | 90 | 111 | 2.0 | 6.0 | 0.00 | 0.00 | 0.00 | 47 | 1014.2 |
| 20260901015004 | 90 | 100 | 2.0 | 6.0 | 0.00 | 0.00 | 0.00 | 46 | 1014.1 |
| 20260901014503 | 91 | 93 | 1.0 | 6.0 | 0.00 | 0.00 | 0.00 | 46 | 1014.0 |
| 20260901014003 | 91 | 93 | 1.0 | 6.0 | 0.00 | 0.00 | 0.00 | 45 | 1014.0 |
| 20260901013503 | 92 | 93 | 0.0 | 2.0 | 0.00 | 0.00 | 0.00 | 44 | 1013.9 |
| 20260901013024 | 92 | 93 | 0.0 | 2.0 | 0.00 | 0.00 | 0.00 | 44 | 1013.9 |
| 20260901012503 | 93 | 93 | 1.0 | 4.0 | 0.00 | 0.00 | 0.00 | 44 | 1013.9 |
| 20260901012003 | 94 | 93 | 1.0 | 4.0 | 0.00 | 0.00 | 0.00 | 42 | 1013.9 |
| 20260901011503 | 94 | 93 | 1.0 | 6.0 | 0.00 | 0.00 | 0.00 | 42 | 1013.8 |
| 20260901011003 | 94 | 92 | 1.0 | 6.0 | 0.00 | 0.00 | 0.00 | 40 | 1013.8 |
| 20260901010503 | 95 | 92 | 1.0 | 4.0 | 0.00 | 0.00 | 0.00 | 39 | 1013.7 |
| 20260901010003 | 95 | 94 | 1.0 | 6.0 | 0.00 | 0.00 | 0.00 | 39 | 1013.6 |
| 20260901005503 | 95 | 97 | 2.0 | 6.0 | 0.00 | 0.00 | 0.00 | 39 | 1013.6 |
| 20260901005003 | 96 | 96 | 2.0 | 6.0 | 0.00 | 0.00 | 0.00 | 39 | 1013.6 |
| 20260901004503 | 96 | 85 | 2.0 | 11.0 | 0.00 | 0.00 | 0.00 | 38 | 1013.5 |
| 20260901004003 | 96 | 96 | 5.0 | 12.0 | 0.00 | 0.00 | 0.00 | 38 | 1013.6 |
| 20260901003503 | 96 | 107 | 7.0 | 16.0 | 0.00 | 0.00 | 0.00 | 38 | 1013.7 |
| 20260901003024 | 96 | 106 | 7.0 | 16.0 | 0.00 | 0.00 | 0.00 | 38 | 1013.6 |
| 20260901002503 | 96 | 104 | 7.0 | 16.0 | 0.00 | 0.00 | 0.00 | 38 | 1013.6 |
| 20260901002003 | 97 | 110 | 6.0 | 16.0 | 0.00 | 0.00 | 0.00 | 38 | 1013.5 |
| 20260901001503 | 97 | 117 | 6.0 | 12.0 | 0.00 | 0.00 | 0.00 | 38 | 1013.5 |
| 20260901001004 | 97 | 125 | 5.0 | 11.0 | 0.00 | 0.00 | 0.00 | 38 | 1013.4 |
| 20260901000504 | 97 | 127 | 4.0 | 10.0 | 0.00 | 0.00 | 0.00 | 39 | 1013.5 |
| 20260901000004 | 97 | 135 | 5.0 | 8.0 | 0.00 | 0.00 | 0.00 | 39 | 1013.4 |
| 20260831235504 | 98 | 144 | 5.0 | 12.0 | 0.00 | 0.00 | 0.00 | 38 | 1013.4 |
| 20260831235004 | 98 | 145 | 5.0 | 12.0 | 0.00 | 0.00 | 0.00 | 39 | 1013.3 |
| 20260831234504 | 98 | 137 | 6.0 | 10.0 | 0.00 | 0.00 | 0.00 | 39 | 1013.4 |
| 20260831234004 | 98 | 122 | 6.0 | 13.0 | 0.00 | 0.00 | 0.00 | 38 | 1013.4 |
| 20260831233504 | 99 | 117 | 5.0 | 13.0 | 0.00 | 0.00 | 0.00 | 38 | 1013.4 |
| 20260831233025 | 99 | 109 | 5.0 | 11.0 | 0.00 | 0.00 | 0.00 | 38 | 1013.3 |
| 20260831232525 | 99 | 106 | 5.0 | 11.0 | 0.00 | 0.00 | 0.00 | 38 | 1013.4 |
| 20260831232004 | 99 | 115 | 5.0 | 10.0 | 0.00 | 0.00 | 0.00 | 37 | 1013.4 |
| 20260831231504 | 99 | 113 | 5.0 | 12.0 | 0.00 | 0.00 | 0.00 | 36 | 1013.4 |
| 20260831231025 | 99 | 106 | 5.0 | 13.0 | 0.00 | 0.00 | 0.00 | 36 | 1013.5 |
| 20260831230525 | 99 | 110 | 6.0 | 13.0 | 0.00 | 0.00 | 0.00 | 37 | 1013.5 |
| 20260831230025 | 99 | 131 | 6.0 | 12.0 | 0.00 | 0.00 | 0.00 | 37 | 1013.5 |
| 20260831225504 | 99 | 146 | 5.0 | 12.0 | 0.00 | 0.00 | 0.00 | 38 | 1013.7 |